DELTA 1 DEB, 7156

Orbit data source: Space-Track

DELTA 1 DEB, 7156 is space debris in SSO originally from a launch on Tue, 06 Nov 1973 UTC launched from the Air Force Western Test Range (AFWTR). Debris objects in space refer to the collection of defunct objects orbiting the Earth. Examples of debris include non-operational satellites, rocket bodies, and fragments generated from explosions, collisions, or faulty payload assembly.

Loading next visibility...
Identifier
7156, 1973-086DV
Orbit
SSO
Country
Flag of USUS
Related business
Manufacturer
Unknown
Mission
Spacecraft
Bus & Motor
Unknown
Mass
Unknown
Launch date (UTC)
1973-11-06 (53 years ago)
Launch vehicle
Unknown
Launch site
Air Force Western Test Range (AFWTR)
Object type
Payload
Rocket body
Debris
Shape & HBR
Unknown shape, 0.2 m
Radar Cross Section
Medium (>0.1 m² and <1 m²)

Expand to show TLE details & history
Last TLE update: 18 hours ago

TLE from 18 hours ago
0 DELTA 1 DEB
1 07156U 73086DV  26206.57639536 -.00000014  00000-0  27285-3 0  9996
2 07156 101.9864  76.6014 0136854 124.0516 264.9129 12.14426707337156
Epoch: 2026-07-25T13:50Z
TLE epoch observation values (Epoch: 2026-07-25T13:50:00.559Z)
Latitude
26.7949°
Longitude
-80.313°
Altitude
1,631.02 km
Speed
7.053 km/s
True Right ascension
04h 41m 54s
True Declination
26° 40' 19"
Sunlit
Object was in daylight at epoch
Visualization orbit readout
Latitude
Unknown
Longitude
Unknown
Altitude
Unknown
Speed
Unknown
Apparent Right ascension
Unknown
Apparent Declination
Unknown
Sunlit
N/A
Visualization observer readout
Local Sidereal Time
21:19:20
Azimuth
Unknown
Elevation
Unknown
Doppler factor
Unknown
Orbital elements
Apogee altitude
1,723.899 km
Perigee altitude
1,505.133 km
Semi-major axis
7,992.653 km
Eccentricity
0.01369
Inclination
101.9864°
RAAN
76.6014°
Arg. of periapsis
124.0516°
True anomaly
263.3534°
Mean anomaly
264.9129°
Eccentric anomaly
264.13289°
Mean motion
3.03743 °/min
Orbital period
118.52 mins
BSTAR
0.00027285
Loading maneuver chart data...
Computing Atmospheric mass density...
Loading historical data...
Loading historical data...
Loading historical data...
Loading historical data...
Loading historical data...
Loading historical data...
Loading historical data...

Documentation

Showing up to 5 results
|